User: anonymous   Login
Location: Kitchener
(43.4500°N, 80.5000°W)
Time: 14:34:54
(UTC-04:00)
Language:

Cosmos 1939 Rocket - Orbit

View from above orbital plane
View from above orbital plane
View from above satellite
View from above satellite

Ground track
Ground track

The orbit data is extracted from the following two-line orbital elements,

1 19046U 88032B   16205.85219678 -.00000267  00000-0 -15419-4 0  9992
2 19046  97.5791 255.3127 0039958  13.5756 346.6533 15.01965888523355
Epoch (UTC): 23 July 2016 20:27:09
Eccentricity: 0.0039958
inclination: 97.5791°
perigee height: 533 km
apogee height: 588 km
right ascension of ascending node: 255.3127°
argument of perigee: 13.5756°
revolutions per day: 15.01965888
mean anomaly at epoch: 346.6533°
orbit number at epoch: 52335

The dashed part of the orbit path shows where the satellite is in the earth's shadow,  

DLR